TimeCAT,TemperatureF,Dew PointF,Humidity,Sea Level PressureIn,VisibilityMPH,Wind Direction,Wind SpeedMPH,Gust SpeedMPH,PrecipitationIn,Events,Conditions,WindDirDegrees,DateUTC
12:00 AM,59.0,23.0,25,30.18,-9999.0,South,4.6,-,N/A,,Clear,170,2013-09-03 22:00:00
1:00 AM,59.0,26.6,29,30.18,-9999.0,SSE,5.8,-,N/A,,Clear,160,2013-09-03 23:00:00
2:00 AM,55.4,24.8,31,30.18,-9999.0,ESE,2.3,-,N/A,,Clear,120,2013-09-04 00:00:00
3:00 AM,55.4,26.6,33,30.15,-9999.0,SSE,6.9,-,N/A,,Clear,150,2013-09-04 01:00:00
4:00 AM,55.4,26.6,33,30.15,-9999.0,South,12.7,-,N/A,,Clear,180,2013-09-04 02:00:00
5:00 AM,53.6,28.4,38,30.18,-9999.0,South,3.5,-,N/A,,Clear,170,2013-09-04 03:00:00
6:00 AM,48.2,24.8,40,30.21,-9999.0,WNW,5.8,-,N/A,,Clear,300,2013-09-04 04:00:00
7:00 AM,50.0,23.0,35,30.24,-9999.0,Variable,2.3,-,N/A,,Clear,0,2013-09-04 05:00:00
8:00 AM,59.0,24.8,27,30.24,-9999.0,Variable,2.3,-,N/A,,Clear,0,2013-09-04 06:00:00
9:00 AM,66.2,26.6,23,30.27,-9999.0,Variable,2.3,-,N/A,,Clear,0,2013-09-04 07:00:00
10:00 AM,71.6,33.8,25,30.27,-9999.0,East,4.6,-,N/A,,Clear,80,2013-09-04 08:00:00
11:00 AM,77.0,35.6,22,30.27,-9999.0,East,3.5,-,N/A,,Clear,90,2013-09-04 09:00:00
12:00 PM,80.6,35.6,20,30.24,-9999.0,NNE,4.6,-,N/A,,Clear,20,2013-09-04 10:00:00
1:00 PM,84.2,35.6,18,30.18,-9999.0,Variable,3.5,-,N/A,,Clear,0,2013-09-04 11:00:00
2:00 PM,86.0,32.0,14,30.15,-9999.0,West,5.8,-,N/A,,Clear,280,2013-09-04 12:00:00
3:00 PM,87.8,30.2,13,30.12,-9999.0,NW,5.8,-,N/A,,Clear,320,2013-09-04 13:00:00
4:00 PM,87.8,24.8,10,30.12,-9999.0,WNW,9.2,-,N/A,,Clear,290,2013-09-04 14:00:00
5:00 PM,87.8,19.4,8,30.09,-9999.0,West,13.8,-,N/A,,Clear,260,2013-09-04 15:00:00
6:00 PM,84.2,19.4,9,30.12,-9999.0,WSW,8.1,-,N/A,,Clear,250,2013-09-04 16:00:00
7:00 PM,78.8,17.6,10,30.15,-9999.0,SSW,8.1,-,N/A,,Clear,210,2013-09-04 17:00:00
8:00 PM,75.2,14.0,10,30.18,-9999.0,SSW,8.1,-,N/A,,Clear,200,2013-09-04 18:00:00
9:00 PM,71.6,14.0,11,30.21,-9999.0,SSW,8.1,-,N/A,,Clear,200,2013-09-04 19:00:00
10:00 PM,66.2,12.2,12,30.21,-9999.0,NNE,3.5,-,N/A,,Clear,20,2013-09-04 20:00:00
11:00 PM,62.6,10.4,13,30.24,-9999.0,Variable,2.3,-,N/A,,Clear,0,2013-09-04 21:00:00